| time (UTC) | temp F | wind direction | speed MPH | gust MPH | rain 1hr in | rain 24hr in | rain mn in | humidity % | barometer mb |
| 20260903064506 | 54 | 221 | 1.0 | 2.0 | 0.00 | 0.84 | 0.84 | 86 | 1013.1 |
| 20260903063006 | 55 | 244 | 1.0 | 3.0 | 0.00 | 0.84 | 0.84 | 86 | 1013.0 |
| 20260903061512 | 55 | 235 | 1.0 | 2.0 | 0.00 | 0.84 | 0.84 | 84 | 1012.9 |
| 20260903060005 | 56 | 252 | 0.0 | 4.0 | 0.01 | 0.84 | 0.84 | 89 | 1013.1 |
| 20260903054509 | 57 | 249 | 1.0 | 3.0 | 0.03 | 0.84 | 0.84 | 93 | 1013.2 |
| 20260903053004 | 57 | 186 | 0.0 | 0.0 | 0.03 | 0.84 | 0.84 | 94 | 1013.1 |
| 20260903051504 | 57 | 174 | 0.0 | 0.0 | 0.03 | 0.84 | 0.84 | 94 | 1013.0 |
| 20260903050010 | 57 | 194 | 0.0 | 0.0 | 0.02 | 0.83 | 0.83 | 94 | 1013.0 |
| 20260903044501 | 57 | 127 | 0.0 | 0.0 | 0.00 | 0.82 | 0.81 | 94 | 1012.9 |
| 20260903043100 | 57 | 127 | 0.0 | 0.0 | 0.00 | 0.82 | 0.81 | 94 | 1012.8 |
| 20260903041559 | 57 | 127 | 0.0 | 0.0 | 0.00 | 0.82 | 0.81 | 94 | 1012.7 |
| 20260903040059 | 57 | 105 | 0.0 | 0.0 | 0.01 | 0.82 | 0.81 | 94 | 1012.6 |
| 20260903034558 | 57 | 90 | 0.0 | 0.0 | 0.01 | 0.84 | 0.81 | 94 | 1012.2 |
| 20260903033102 | 57 | 108 | 0.0 | 0.0 | 0.02 | 0.84 | 0.81 | 94 | 1012.2 |
| 20260903031556 | 57 | 65 | 0.0 | 0.0 | 0.03 | 0.84 | 0.81 | 93 | 1012.2 |
| 20260903030116 | 57 | 65 | 0.0 | 0.0 | 0.06 | 0.83 | 0.80 | 93 | 1011.8 |
| 20260903024555 | 57 | 65 | 0.0 | 0.0 | 0.11 | 0.92 | 0.80 | 93 | 1011.9 |
| 20260903023054 | 57 | 346 | 0.0 | 0.0 | 0.15 | 0.91 | 0.79 | 93 | 1012.0 |
| 20260903021554 | 57 | 338 | 0.0 | 2.0 | 0.15 | 0.90 | 0.78 | 93 | 1011.9 |
| 20260903020104 | 57 | 286 | 1.0 | 3.0 | 0.13 | 0.86 | 0.74 | 93 | 1012.1 |
| 20260903014552 | 57 | 306 | 0.0 | 2.0 | 0.13 | 0.81 | 0.69 | 92 | 1011.8 |
| 20260903013051 | 57 | 323 | 0.0 | 2.0 | 0.13 | 0.76 | 0.64 | 92 | 1011.7 |
| 20260903011551 | 57 | 350 | 0.0 | 2.0 | 0.16 | 0.75 | 0.63 | 92 | 1011.8 |
| 20260903010051 | 57 | 38 | 0.0 | 2.0 | 0.16 | 0.73 | 0.61 | 92 | 1011.7 |
| 20260903004550 | 57 | 320 | 0.0 | 3.0 | 0.13 | 0.68 | 0.56 | 91 | 1011.5 |
| 20260903003049 | 58 | 5 | 0.0 | 3.0 | 0.10 | 0.63 | 0.51 | 89 | 1011.5 |
| 20260903001603 | 58 | 340 | 1.0 | 4.0 | 0.10 | 0.59 | 0.47 | 91 | 1011.6 |
| 20260903000054 | 58 | 360 | 0.0 | 2.0 | 0.11 | 0.56 | 0.45 | 91 | 1011.6 |
| 20260902234547 | 58 | 33 | 2.0 | 4.0 | 0.12 | 0.55 | 0.43 | 89 | 1011.3 |
| 20260902233054 | 58 | 330 | 3.0 | 4.0 | 0.12 | 0.53 | 0.41 | 89 | 1011.5 |
| 20260902231551 | 58 | 346 | 1.0 | 4.0 | 0.11 | 0.49 | 0.37 | 89 | 1011.6 |
| 20260902230048 | 58 | 360 | 3.0 | 5.0 | 0.10 | 0.46 | 0.34 | 90 | 1011.4 |
| 20260902224544 | 58 | 31 | 4.0 | 6.0 | 0.08 | 0.43 | 0.31 | 91 | 1011.4 |
| 20260902223046 | 58 | 360 | 1.0 | 5.0 | 0.07 | 0.41 | 0.28 | 90 | 1011.3 |
| 20260902221605 | 58 | 5 | 2.0 | 4.0 | 0.05 | 0.38 | 0.26 | 88 | 1011.2 |
| 20260902220042 | 59 | 24 | 1.0 | 3.0 | 0.05 | 0.36 | 0.24 | 90 | 1011.4 |
| 20260902214540 | 58 | 19 | 1.0 | 4.0 | 0.06 | 0.35 | 0.23 | 90 | 1011.1 |
| 20260902213040 | 58 | 57 | 0.0 | 3.0 | 0.06 | 0.34 | 0.22 | 91 | 1011.2 |
| 20260902211538 | 58 | 59 | 2.0 | 5.0 | 0.05 | 0.33 | 0.21 | 90 | 1011.1 |
| 20260902210038 | 58 | 70 | 2.0 | 5.0 | 0.05 | 0.31 | 0.19 | 89 | 1011.1 |
| 20260902204551 | 59 | 61 | 2.0 | 5.0 | 0.04 | 0.28 | 0.17 | 88 | 1011.1 |
| 20260902203036 | 59 | 30 | 0.0 | 2.0 | 0.03 | 0.28 | 0.16 | 88 | 1011.2 |
| 20260902201541 | 59 | 355 | 0.0 | 3.0 | 0.04 | 0.28 | 0.16 | 87 | 1011.2 |
| 20260902200038 | 59 | 5 | 0.0 | 2.0 | 0.03 | 0.26 | 0.14 | 88 | 1011.2 |
| 20260902194549 | 59 | 281 | 1.0 | 3.0 | 0.02 | 0.25 | 0.13 | 87 | 1011.0 |
| 20260902193035 | 59 | 301 | 1.0 | 3.0 | 0.03 | 0.25 | 0.13 | 87 | 1011.1 |
| 20260902191542 | 59 | 304 | 1.0 | 4.0 | 0.04 | 0.24 | 0.12 | 87 | 1011.4 |
| 20260902190031 | 59 | 46 | 1.0 | 4.0 | 0.03 | 0.23 | 0.11 | 88 | 1011.1 |
| 20260902184527 | 58 | 301 | 0.0 | 1.0 | 0.03 | 0.23 | 0.11 | 88 | 1011.2 |
| 20260902183030 | 58 | 31 | 0.0 | 0.0 | 0.03 | 0.22 | 0.10 | 89 | 1011.2 |
| 20260902181526 | 58 | 288 | 0.0 | 3.0 | 0.02 | 0.20 | 0.08 | 90 | 1011.3 |
| 20260902180025 | 58 | 240 | 0.0 | 3.0 | 0.03 | 0.20 | 0.08 | 90 | 1011.1 |
| 20260902174523 | 57 | 259 | 0.0 | 2.0 | 0.04 | 0.20 | 0.08 | 90 | 1011.0 |
| 20260902173031 | 57 | 254 | 0.0 | 0.0 | 0.05 | 0.19 | 0.07 | 90 | 1010.8 |
| 20260902171521 | 57 | 252 | 0.0 | 0.0 | 0.05 | 0.18 | 0.06 | 90 | 1011.0 |
| 20260902170023 | 57 | 78 | 0.0 | 0.0 | 0.05 | 0.17 | 0.05 | 90 | 1010.9 |
| 20260902164521 | 56 | 78 | 0.0 | 0.0 | 0.04 | 0.16 | 0.04 | 90 | 1010.9 |
| 20260902163017 | 56 | 78 | 0.0 | 0.0 | 0.02 | 0.14 | 0.02 | 90 | 1010.9 |
| 20260902161517 | 56 | 5 | 0.0 | 0.0 | 0.01 | 0.13 | 0.01 | 90 | 1010.9 |
| 20260902160016 | 56 | 15 | 0.0 | 0.0 | 0.00 | 0.12 | 0.00 | 91 | 1011.0 |
| 20260902154523 | 55 | 30 | 0.0 | 0.0 | 0.00 | 0.12 | 0.00 | 92 | 1011.1 |
| 20260902153013 | 55 | 254 | 0.0 | 0.0 | 0.00 | 0.12 | 0.00 | 92 | 1011.2 |
| 20260902151511 | 54 | 76 | 0.0 | 0.0 | 0.00 | 0.12 | 0.00 | 92 | 1011.2 |
| 20260902150010 | 54 | 150 | 0.0 | 0.0 | 0.00 | 0.12 | 0.00 | 92 | 1011.4 |
| 20260902144509 | 54 | 198 | 0.0 | 0.0 | 0.00 | 0.12 | 0.00 | 92 | 1011.3 |
| 20260902143008 | 54 | 85 | 0.0 | 0.0 | 0.00 | 0.12 | 0.00 | 92 | 1011.4 |
| 20260902141507 | 53 | 73 | 1.0 | 2.0 | 0.00 | 0.12 | 0.00 | 92 | 1011.3 |
| 20260902140008 | 53 | 11 | 0.0 | 0.0 | 0.00 | 0.12 | 0.00 | 91 | 1011.5 |
| 20260902134502 | 54 | 296 | 0.0 | 0.0 | 0.00 | 0.12 | 0.00 | 91 | 1011.6 |
| 20260902133002 | 54 | 58 | 0.0 | 0.0 | 0.00 | 0.12 | 0.00 | 91 | 1011.5 |
| 20260902131613 | 54 | 56 | 0.0 | 0.0 | 0.00 | 0.12 | 0.00 | 91 | 1011.5 |
| 20260902124557 | 54 | 84 | 0.0 | 3.0 | 0.00 | 0.12 | 0.00 | 92 | 1011.8 |
| 20260902123058 | 53 | 75 | 1.0 | 5.0 | 0.00 | 0.12 | 0.00 | 93 | 1011.7 |
| 20260902121556 | 53 | 62 | 1.0 | 5.0 | 0.00 | 0.12 | 0.00 | 93 | 1011.7 |
| 20260902120053 | 52 | 338 | 0.0 | 0.0 | 0.00 | 0.12 | 0.00 | 92 | 1012.0 |
| 20260902114609 | 52 | 227 | 0.0 | 0.0 | 0.00 | 0.12 | 0.00 | 92 | 1012.3 |
| 20260902113049 | 52 | 227 | 0.0 | 0.0 | 0.00 | 0.12 | 0.00 | 92 | 1012.4 |
| 20260902111548 | 52 | 216 | 0.0 | 0.0 | 0.00 | 0.12 | 0.00 | 92 | 1012.6 |
| 20260902110059 | 52 | 342 | 0.0 | 0.0 | 0.00 | 0.12 | 0.00 | 91 | 1012.6 |
| 20260902104545 | 52 | 342 | 0.0 | 0.0 | 0.00 | 0.12 | 0.00 | 91 | 1012.6 |
| 20260902103050 | 52 | 342 | 0.0 | 0.0 | 0.00 | 0.12 | 0.00 | 89 | 1012.7 |
| 20260902101548 | 52 | 342 | 0.0 | 0.0 | 0.00 | 0.12 | 0.00 | 89 | 1012.7 |
| 20260902100039 | 53 | 347 | 0.0 | 0.0 | 0.00 | 0.12 | 0.00 | 88 | 1012.8 |
| 20260902094535 | 54 | 278 | 0.0 | 0.0 | 0.00 | 0.12 | 0.00 | 87 | 1012.9 |
| 20260902093038 | 54 | 314 | 0.0 | 0.0 | 0.00 | 0.12 | 0.00 | 88 | 1012.9 |
| 20260902091531 | 55 | 355 | 0.0 | 0.0 | 0.00 | 0.12 | 0.00 | 88 | 1013.0 |
| 20260902090028 | 56 | 355 | 0.0 | 0.0 | 0.00 | 0.12 | 0.00 | 87 | 1013.2 |
| 20260902084527 | 57 | 280 | 0.0 | 0.0 | 0.00 | 0.12 | 0.00 | 86 | 1013.4 |
| 20260902083033 | 57 | 271 | 0.0 | 0.0 | 0.00 | 0.12 | 0.00 | 86 | 1013.4 |
| 20260902081532 | 58 | 9 | 0.0 | 0.0 | 0.00 | 0.12 | 0.00 | 85 | 1013.2 |
| 20260902080026 | 58 | 68 | 0.0 | 2.0 | 0.00 | 0.12 | 0.00 | 82 | 1013.1 |
| 20260902074518 | 58 | 248 | 1.0 | 2.0 | 0.00 | 0.12 | 0.00 | 85 | 1013.0 |
| 20260902073028 | 58 | 5 | 0.0 | 0.0 | 0.00 | 0.12 | 0.00 | 86 | 1012.9 |
| 20260902071517 | 59 | 350 | 0.0 | 1.0 | 0.00 | 0.12 | 0.00 | 87 | 1012.9 |
| 20260902070014 | 59 | 11 | 0.0 | 0.0 | 0.00 | 0.12 | 0.00 | 87 | 1013.0 |